• In Deutschland
  • Länderverzeichnis
  • Für 7 Tage
  • Wassertemperatur
  • Satellitenkarten
  • Wetterkarte
  • Widgets
  • user-avatar
    Anmelden

    Stündliche Wetter Krefeld

    Heute, 20 August, Montag

    Zeit Temperatur Niederschläge Wind Luftdruck Luftfeuchtigkeit
    00:00 +21°C° 0 mm 2 m/S 760 mmHg 79%
    01:00 +21°C° 0 mm 2 m/S 760 mmHg 81%
    02:00 +20°C° 0 mm 3 m/S 760 mmHg 83%
    03:00 +20°C° 0 mm 3 m/S 760 mmHg 84%
    04:00 +20°C° 0,1 mm 3 m/S 760 mmHg 85%
    05:00 +20°C° 0,1 mm 3 m/S 760 mmHg 86%
    06:00 +20°C° 0,1 mm 3 m/S 760 mmHg 87%
    07:00 +20°C° 0,1 mm 2 m/S 760 mmHg 86%
    08:00 +21°C° 0,1 mm 2 m/S 761 mmHg 85%
    09:00 +21°C° 0,1 mm 2 m/S 761 mmHg 83%
    10:00 +23°C° 0,1 mm 2 m/S 761 mmHg 79%
    11:00 +24°C° 0,1 mm 2 m/S 761 mmHg 74%
    12:00 +25°C° 0,1 mm 2 m/S 761 mmHg 69%
    13:00 +25°C° 0,1 mm 2 m/S 761 mmHg 67%
    14:00 +25°C° 0,1 mm 2 m/S 761 mmHg 64%
    15:00 +26°C° 0,1 mm 3 m/S 761 mmHg 62%
    16:00 +25°C° 0 mm 2 m/S 761 mmHg 64%
    17:00 +24°C° 0 mm 2 m/S 761 mmHg 67%
    18:00 +24°C° 0 mm 2 m/S 761 mmHg 70%
    19:00 +23°C° 0 mm 2 m/S 761 mmHg 73%
    20:00 +21°C° 0 mm 2 m/S 761 mmHg 75%
    21:00 +22°C° 0 mm 1 m/S 762 mmHg 77%
    22:00 +21°C° 0 mm 1 m/S 762 mmHg 79%
    23:00 +21°C° 0 mm 1 m/S 762 mmHg 80%

    Morgen, 21 August, Dienstag

    Zeit Temperatur Niederschläge Wind Luftdruck Luftfeuchtigkeit
    00:00 +21°C° 0 mm 1 m/S 762 mmHg 81%
    01:00 +20°C° 0 mm 1 m/S 762 mmHg 82%
    02:00 +20°C° 0 mm 1 m/S 762 mmHg 82%
    03:00 +20°C° 0 mm 1 m/S 762 mmHg 83%
    04:00 +20°C° 0,1 mm 1 m/S 762 mmHg 83%
    05:00 +20°C° 0,1 mm 1 m/S 762 mmHg 82%
    06:00 +20°C° 0,1 mm 1 m/S 762 mmHg 82%
    07:00 +21°C° 0,1 mm 1 m/S 762 mmHg 80%
    08:00 +21°C° 0,1 mm 1 m/S 762 mmHg 79%
    09:00 +21°C° 0,1 mm 2 m/S 762 mmHg 77%
    10:00 +23°C° 0,1 mm 1 m/S 762 mmHg 71%
    11:00 +24°C° 0,1 mm 1 m/S 761 mmHg 66%
    12:00 +26°C° 0,1 mm 1 m/S 761 mmHg 60%
    13:00 +26°C° 0 mm 1 m/S 761 mmHg 57%
    14:00 +27°C° 0 mm 1 m/S 760 mmHg 55%
    15:00 +27°C° 0 mm 1 m/S 760 mmHg 52%
    16:00 +27°C° 0 mm 1 m/S 760 mmHg 55%
    17:00 +26°C° 0 mm 1 m/S 760 mmHg 57%
    18:00 +25°C° 0 mm 1 m/S 760 mmHg 60%
    19:00 +24°C° 0 mm 1 m/S 760 mmHg 63%
    20:00 +24°C° 0 mm 1 m/S 760 mmHg 66%
    21:00 +23°C° 0 mm 1 m/S 760 mmHg 68%
    22:00 +22°C° 0 mm 1 m/S 760 mmHg 70%
    23:00 +22°C° 0 mm 1 m/S 760 mmHg 72%

    übermorgen, 22 August, Mittwoch

    Zeit Temperatur Niederschläge Wind Luftdruck Luftfeuchtigkeit
    00:00 +22°C° 0 mm 1 m/S 760 mmHg 74%
    01:00 +21°C° 0 mm 1 m/S 760 mmHg 75%
    02:00 +21°C° 0 mm 1 m/S 760 mmHg 76%
    03:00 +19°C° 0 mm 0 m/S 759 mmHg 78%
    04:00 +21°C° 0 mm 1 m/S 759 mmHg 77%
    05:00 +21°C° 0 mm 1 m/S 759 mmHg 76%
    06:00 +22°C° 0 mm 1 m/S 759 mmHg 75%
    07:00 +23°C° 0 mm 1 m/S 759 mmHg 68%
    08:00 +25°C° 0 mm 1 m/S 759 mmHg 62%
    09:00 +27°C° 0 mm 1 m/S 759 mmHg 55%
    10:00 +28°C° 0 mm 2 m/S 758 mmHg 52%
    11:00 +29°C° 0 mm 2 m/S 758 mmHg 48%
    12:00 +30°C° 0 mm 2 m/S 758 mmHg 44%
    13:00 +30°C° 0 mm 3 m/S 758 mmHg 44%
    14:00 +30°C° 0 mm 3 m/S 757 mmHg 44%
    15:00 +30°C° 0 mm 3 m/S 757 mmHg 45%
    16:00 +29°C° 0 mm 3 m/S 757 mmHg 48%
    17:00 +28°C° 0 mm 2 m/S 757 mmHg 52%
    18:00 +27°C° 0 mm 2 m/S 757 mmHg 55%
    19:00 +26°C° 0 mm 2 m/S 757 mmHg 60%
    20:00 +25°C° 0 mm 2 m/S 758 mmHg 65%
    21:00 +23°C° 0 mm 1 m/S 758 mmHg 69%
    22:00 +22°C° 0 mm 1 m/S 758 mmHg 72%
    23:00 +22°C° 0 mm 1 m/S 757 mmHg 75%

    23 August, Donnerstag

    Zeit Temperatur Niederschläge Wind Luftdruck Luftfeuchtigkeit
    00:00 +21°C° 0 mm 1 m/S 757 mmHg 78%
    01:00 +21°C° 0 mm 1 m/S 757 mmHg 79%
    02:00 +20°C° 0 mm 1 m/S 757 mmHg 81%
    03:00 +20°C° 0 mm 1 m/S 757 mmHg 83%
    04:00 +20°C° 0 mm 1 m/S 757 mmHg 81%
    05:00 +21°C° 0 mm 1 m/S 756 mmHg 80%
    06:00 +20°C° 0 mm 2 m/S 756 mmHg 79%
    07:00 +23°C° 0 mm 2 m/S 756 mmHg 72%
    08:00 +24°C° 0 mm 3 m/S 756 mmHg 65%
    09:00 +26°C° 0 mm 3 m/S 756 mmHg 58%
    10:00 +27°C° 0 mm 4 m/S 755 mmHg 54%
    11:00 +28°C° 0 mm 4 m/S 755 mmHg 50%
    12:00 +29°C° 0 mm 4 m/S 754 mmHg 46%
    13:00 +29°C° 0,1 mm 5 m/S 754 mmHg 46%
    14:00 +29°C° 0,1 mm 5 m/S 753 mmHg 47%
    15:00 +29°C° 0,1 mm 5 m/S 753 mmHg 47%
    16:00 +28°C° 0,2 mm 5 m/S 753 mmHg 54%
    17:00 +26°C° 0,2 mm 5 m/S 753 mmHg 61%
    18:00 +23°C° 0,2 mm 4 m/S 753 mmHg 68%
    19:00 +22°C° 0 mm 4 m/S 753 mmHg 72%
    20:00 +21°C° 0 mm 4 m/S 754 mmHg 76%
    21:00 +20°C° 0 mm 3 m/S 754 mmHg 80%
    22:00 +19°C° 0 mm 3 m/S 754 mmHg 80%
    23:00 +18°C° 0 mm 3 m/S 753 mmHg 80%

    24 August, Freitag

    Zeit Temperatur Niederschläge Wind Luftdruck Luftfeuchtigkeit
    00:00 +17°C° 0 mm 3 m/S 753 mmHg 81%
    01:00 +17°C° 0 mm 3 m/S 753 mmHg 81%
    02:00 +15°C° 0 mm 4 m/S 753 mmHg 81%
    03:00 +15°C° 0 mm 4 m/S 753 mmHg 81%
    04:00 +15°C° 0,1 mm 4 m/S 753 mmHg 80%
    05:00 +15°C° 0,1 mm 4 m/S 754 mmHg 80%
    06:00 +15°C° 0,1 mm 4 m/S 754 mmHg 80%
    07:00 +15°C° 0,1 mm 4 m/S 754 mmHg 73%
    08:00 +16°C° 0,1 mm 5 m/S 754 mmHg 66%
    09:00 +16°C° 0,1 mm 5 m/S 755 mmHg 59%
    10:00 +17°C° 0,1 mm 5 m/S 755 mmHg 52%
    11:00 +19°C° 0,1 mm 5 m/S 755 mmHg 46%
    12:00 +20°C° 0,1 mm 6 m/S 755 mmHg 39%
    13:00 +20°C° 0 mm 6 m/S 755 mmHg 39%
    14:00 +20°C° 0 mm 5 m/S 755 mmHg 39%
    15:00 +20°C° 0 mm 5 m/S 755 mmHg 40%
    16:00 +19°C° 0 mm 4 m/S 755 mmHg 43%
    17:00 +19°C° 0 mm 4 m/S 756 mmHg 46%
    18:00 +18°C° 0 mm 3 m/S 756 mmHg 49%
    19:00 +17°C° 0 mm 3 m/S 756 mmHg 53%
    20:00 +16°C° 0 mm 3 m/S 757 mmHg 57%
    21:00 +15°C° 0 mm 2 m/S 757 mmHg 61%
    22:00 +13°C° 0 mm 3 m/S 757 mmHg 63%
    23:00 +13°C° 0 mm 3 m/S 757 mmHg 64%

    25 August, Samstag

    Zeit Temperatur Niederschläge Wind Luftdruck Luftfeuchtigkeit
    00:00 +12°C° 0 mm 3 m/S 757 mmHg 66%
    01:00 +12°C° 0 mm 3 m/S 757 mmHg 69%
    02:00 +12°C° 0 mm 3 m/S 757 mmHg 72%
    03:00 +11°C° 0 mm 3 m/S 756 mmHg 75%
    04:00 +11°C° 0 mm 3 m/S 757 mmHg 75%
    05:00 +12°C° 0 mm 3 m/S 757 mmHg 76%
    06:00 +12°C° 0 mm 3 m/S 757 mmHg 76%
    07:00 +14°C° 0 mm 3 m/S 757 mmHg 70%
    08:00 +16°C° 0 mm 3 m/S 757 mmHg 63%
    09:00 +18°C° 0 mm 3 m/S 757 mmHg 56%
    10:00 +19°C° 0,2 mm 4 m/S 757 mmHg 52%
    11:00 +20°C° 0,2 mm 4 m/S 756 mmHg 48%
    12:00 +21°C° 0,2 mm 4 m/S 756 mmHg 45%
    13:00 +21°C° 0,2 mm 4 m/S 756 mmHg 44%
    14:00 +21°C° 0,2 mm 4 m/S 756 mmHg 44%
    15:00 +21°C° 0,2 mm 4 m/S 756 mmHg 44%
    16:00 +20°C° 0,1 mm 4 m/S 756 mmHg 48%
    17:00 +19°C° 0,1 mm 3 m/S 756 mmHg 53%
    18:00 +18°C° 0,1 mm 3 m/S 756 mmHg 58%
    19:00 +16°C° 0 mm 2 m/S 757 mmHg 62%
    20:00 +15°C° 0 mm 2 m/S 757 mmHg 67%
    21:00 +14°C° 0 mm 2 m/S 757 mmHg 71%
    22:00 +14°C° 0 mm 1 m/S 757 mmHg 72%
    23:00 +14°C° 0 mm 1 m/S 757 mmHg 72%
    Mehr zeigen